�������l�o���
Date,Time,MP-1(��Sv/h),MP-2(��Sv/h),MP-3(��Sv/h),MP-4(��Sv/h),MP-5(��Sv/h),MP-6(��Sv/h),MP-7(��Sv/h),����,����(m/s),���J
2020/08/10,00:00,0.176,0.159,0.262,0.248,0.247,0.136,0.083,�k�k��,1.7,��
2020/08/10,00:10,0.175,0.160,0.261,0.252,0.249,0.137,0.083,�k�k��,1.5,��
2020/08/10,00:20,0.174,0.160,0.260,0.250,0.247,0.135,0.083,�k,2.0,��
2020/08/10,00:30,0.177,0.159,0.261,0.248,0.246,0.138,0.083,�k,2.2,��
2020/08/10,00:40,0.175,0.160,0.263,0.249,0.246,0.137,0.085,�k��,1.3,��
2020/08/10,00:50,0.174,0.161,0.260,0.252,0.249,0.136,0.083,�k��,1.7,��
2020/08/10,01:00,0.177,0.160,0.260,0.248,0.246,0.137,0.084,�k��,1.8,��
2020/08/10,01:10,0.175,0.159,0.262,0.247,0.245,0.138,0.083,���k��,1.9,��
2020/08/10,01:20,0.173,0.160,0.260,0.252,0.249,0.137,0.083,��,1.3,��
2020/08/10,01:30,0.176,0.159,0.260,0.249,0.249,0.136,0.083,���쐼,2.4,��
2020/08/10,01:40,0.175,0.158,0.263,0.248,0.246,0.136,0.084,��,1.9,��
2020/08/10,01:50,0.173,0.160,0.262,0.250,0.245,0.136,0.084,�쐼,0.9,��
2020/08/10,02:00,0.176,0.159,0.260,0.250,0.249,0.135,0.084,�쓌,1.1,��
2020/08/10,02:10,0.176,0.157,0.262,0.248,0.248,0.138,0.083,��쓌,2.7,��
2020/08/10,02:20,0.173,0.161,0.262,0.249,0.246,0.137,0.084,��쐼,1.4,��
2020/08/10,02:30,0.175,0.160,0.260,0.251,0.247,0.136,0.082,�쐼,2.6,��
2020/08/10,02:40,0.176,0.158,0.261,0.248,0.249,0.137,0.083,�쐼,3.0,��
2020/08/10,02:50,0.175,0.160,0.263,0.248,0.246,0.137,0.084,��,2.5,��
2020/08/10,03:00,0.175,0.159,0.259,0.251,0.244,0.136,0.084,��쓌,1.8,��
2020/08/10,03:10,0.175,0.160,0.261,0.248,0.249,0.137,0.084,��,2.7,��
2020/08/10,03:20,0.174,0.159,0.263,0.247,0.247,0.137,0.085,�쐼,3.7,��
2020/08/10,03:30,0.174,0.159,0.260,0.252,0.246,0.136,0.084,��쐼,2.3,��
2020/08/10,03:40,0.175,0.159,0.261,0.250,0.246,0.138,0.083,�쐼,2.2,��
2020/08/10,03:50,0.174,0.161,0.263,0.248,0.250,0.137,0.084,�쐼,2.4,��
2020/08/10,04:00,0.174,0.158,0.261,0.251,0.247,0.136,0.083,���쐼,3.6,��
2020/08/10,04:10,0.176,0.160,0.259,0.248,0.245,0.137,0.084,���쐼,2.6,��
2020/08/10,04:20,0.175,0.160,0.263,0.248,0.248,0.136,0.084,�쐼,3.3,��
2020/08/10,04:30,0.175,0.159,0.262,0.250,0.249,0.136,0.084,�쐼,2.9,��
2020/08/10,04:40,0.176,0.161,0.260,0.250,0.246,0.137,0.084,��쐼,2.5,��
2020/08/10,04:50,0.175,0.160,0.262,0.248,0.245,0.137,0.084,��쐼,2.5,��
2020/08/10,05:00,0.175,0.159,0.261,0.251,0.248,0.137,0.083,��쐼,2.3,��
2020/08/10,05:10,0.176,0.160,0.260,0.250,0.248,0.138,0.084,�쐼,2.4,��
2020/08/10,05:20,0.175,0.159,0.263,0.248,0.245,0.137,0.084,��쐼,1.9,��
2020/08/10,05:30,0.176,0.159,0.261,0.251,0.248,0.137,0.084,��쐼,2.9,��
2020/08/10,05:40,0.176,0.160,0.259,0.250,0.247,0.138,0.083,��쐼,3.0,��
2020/08/10,05:50,0.175,0.159,0.264,0.248,0.246,0.137,0.084,��쐼,3.1,��
2020/08/10,06:00,0.176,0.160,0.262,0.250,0.246,0.135,0.085,��,4.0,��
2020/08/10,06:10,0.176,0.160,0.259,0.251,0.248,0.138,0.082,��쐼,5.0,��
2020/08/10,06:20,0.174,0.159,0.264,0.249,0.249,0.137,0.084,��쐼,3.0,��
2020/08/10,06:30,0.175,0.159,0.261,0.247,0.246,0.137,0.084,�쐼,3.2,��
2020/08/10,06:40,0.176,0.161,0.259,0.250,0.245,0.136,0.084,�쐼,3.0,��
2020/08/10,06:50,0.175,0.161,0.260,0.251,0.245,0.138,0.084,�쐼,2.5,��
2020/08/10,07:00,0.174,0.159,0.263,0.248,0.247,0.136,0.084,���쐼,1.9,��
2020/08/10,07:10,0.176,0.159,0.262,0.247,0.249,0.136,0.085,�쐼,1.1,��
2020/08/10,07:20,0.175,0.161,0.261,0.248,0.247,0.137,0.084,���쐼,1.3,��
2020/08/10,07:30,0.174,0.160,0.260,0.252,0.246,0.138,0.083,�쐼,1.2,��
2020/08/10,07:40,0.173,0.159,0.259,0.251,0.244,0.137,0.083,�쐼,2.1,��
2020/08/10,07:50,0.176,0.158,0.259,0.249,0.245,0.137,0.083,�쐼,2.4,��
2020/08/10,08:00,0.177,0.159,0.261,0.248,0.244,0.137,0.085,��쐼,2.4,��
2020/08/10,08:10,0.175,0.158,0.265,0.248,0.245,0.138,0.084,�쐼,2.3,��
2020/08/10,08:20,0.173,0.159,0.264,0.248,0.246,0.137,0.084,�쐼,1.9,��
2020/08/10,08:30,0.175,0.161,0.261,0.247,0.246,0.136,0.084,���쐼,1.7,��
2020/08/10,08:40,0.176,0.161,0.260,0.247,0.245,0.136,0.084,���쐼,1.2,��
2020/08/10,08:50,0.176,0.160,0.261,0.248,0.246,0.137,0.083,���쐼,1.0,��
2020/08/10,09:00,0.174,0.160,0.261,0.249,0.247,0.137,0.083,�쐼,1.8,��
2020/08/10,09:10,0.174,0.161,0.262,0.250,0.248,0.138,0.083,��쐼,1.5,��
2020/08/10,09:20,0.176,0.161,0.261,0.250,0.248,0.138,0.083,��쐼,2.0,��
2020/08/10,09:30,0.175,0.161,0.262,0.249,0.248,0.138,0.084,��쐼,2.3,��
2020/08/10,09:40,0.174,0.160,0.262,0.251,0.249,0.137,0.084,��,2.7,��
2020/08/10,09:50,0.175,0.161,0.262,0.251,0.249,0.138,0.084,��,2.8,��
2020/08/10,10:00,0.175,0.160,0.263,0.251,0.248,0.138,0.084,��,4.6,��
2020/08/10,10:10,0.175,0.160,0.263,0.250,0.249,0.137,0.084,��,5.2,��
2020/08/10,10:20,0.177,0.160,0.263,0.251,0.250,0.138,0.084,��쓌,5.7,��
2020/08/10,10:30,0.175,0.161,0.264,0.251,0.250,0.137,0.084,��쓌,5.8,��
2020/08/10,10:40,0.177,0.162,0.264,0.252,0.249,0.138,0.084,��쓌,4.6,��
2020/08/10,10:50,0.176,0.162,0.264,0.252,0.250,0.138,0.085,��쓌,5.0,��
2020/08/10,11:00,0.177,0.162,0.265,0.252,0.249,0.138,0.084,��쓌,4.7,��
2020/08/10,11:10,0.177,0.161,0.264,0.253,0.248,0.138,0.084,��쓌,7.2,��
2020/08/10,11:20,0.175,0.161,0.265,0.252,0.249,0.138,0.084,��쓌,7.2,��
2020/08/10,11:30,0.176,0.161,0.265,0.252,0.248,0.138,0.085,��쓌,7.0,��
2020/08/10,11:40,0.175,0.162,0.263,0.252,0.248,0.139,0.085,��쓌,4.7,��
2020/08/10,11:50,0.175,0.162,0.263,0.252,0.248,0.139,0.084,��쓌,5.1,��
2020/08/10,12:00,0.176,0.160,0.263,0.252,0.249,0.139,0.084,�쓌,6.3,��
2020/08/10,12:10,0.176,0.161,0.264,0.252,0.248,0.138,0.084,��쓌,7.4,��
2020/08/10,12:20,0.176,0.161,0.263,0.252,0.248,0.137,0.084,��쓌,7.0,��
2020/08/10,12:30,0.177,0.161,0.262,0.253,0.248,0.138,0.085,��쓌,6.5,��
2020/08/10,12:40,0.177,0.161,0.264,0.252,0.248,0.139,0.085,��쓌,5.0,��
2020/08/10,12:50,0.176,0.160,0.262,0.251,0.248,0.138,0.084,��쓌,5.9,��
2020/08/10,13:00,0.176,0.161,0.263,0.252,0.248,0.138,0.084,��쓌,5.7,��
2020/08/10,13:10,0.176,0.160,0.263,0.252,0.248,0.138,0.084,��,3.4,��
2020/08/10,13:20,0.177,0.161,0.265,0.252,0.247,0.138,0.085,��,3.9,��
2020/08/10,13:30,0.177,0.162,0.264,0.251,0.247,0.138,0.084,��,4.0,��
2020/08/10,13:40,0.177,0.161,0.265,0.252,0.246,0.138,0.084,��쓌,2.2,��
2020/08/10,13:50,0.176,0.160,0.262,0.252,0.244,0.138,0.084,�쓌,2.9,��
2020/08/10,14:00,0.177,0.160,0.262,0.252,0.246,0.138,0.084,�쓌,4.0,��
2020/08/10,14:10,0.177,0.160,0.262,0.252,0.246,0.138,0.085,��쓌,4.9,��
2020/08/10,14:20,0.177,0.160,0.262,0.250,0.246,0.138,0.084,��쓌,3.9,��
2020/08/10,14:30,0.176,0.161,0.262,0.251,0.245,0.137,0.084,�쓌,5.1,��
2020/08/10,14:40,0.176,0.160,0.263,0.251,0.246,0.137,0.084,�쓌,4.4,��
2020/08/10,14:50,0.176,0.160,0.263,0.252,0.246,0.137,0.083,�쓌,2.6,��
2020/08/10,15:00,0.176,0.158,0.263,0.250,0.246,0.136,0.083,�쓌,2.8,��
2020/08/10,15:10,0.175,0.160,0.261,0.250,0.245,0.136,0.083,��쓌,6.0,��
2020/08/10,15:20,0.175,0.159,0.261,0.251,0.246,0.137,0.083,��쓌,7.0,��
2020/08/10,15:30,0.175,0.158,0.261,0.250,0.247,0.137,0.083,��,8.7,��
2020/08/10,15:40,0.176,0.159,0.260,0.250,0.244,0.136,0.083,��,7.3,��
2020/08/10,15:50,0.174,0.159,0.260,0.250,0.245,0.137,0.083,��,6.8,��
2020/08/10,16:00,0.175,0.158,0.260,0.249,0.245,0.137,0.084,��,6.4,��
2020/08/10,16:10,0.175,0.159,0.262,0.250,0.245,0.138,0.083,��,4.7,��
2020/08/10,16:20,0.175,0.160,0.262,0.250,0.247,0.137,0.083,��,2.1,��
2020/08/10,16:30,0.176,0.160,0.261,0.250,0.246,0.137,0.084,��쓌,2.7,��
2020/08/10,16:40,0.176,0.159,0.261,0.250,0.247,0.137,0.083,��,4.0,��
2020/08/10,16:50,0.175,0.160,0.263,0.251,0.248,0.137,0.083,��,2.7,��
2020/08/10,17:00,0.175,0.160,0.262,0.251,0.248,0.137,0.083,��,4.1,��
2020/08/10,17:10,0.176,0.159,0.262,0.250,0.247,0.137,0.083,��,4.1,��
2020/08/10,17:20,0.175,0.160,0.261,0.251,0.247,0.136,0.083,��,2.5,��
2020/08/10,17:30,0.175,0.159,0.261,0.251,0.245,0.137,0.083,�쓌,0.6,��
2020/08/10,17:40,0.175,0.159,0.262,0.251,0.246,0.136,0.083,-,CALM,��
2020/08/10,17:50,0.175,0.160,0.263,0.248,0.245,0.137,0.083,��,2.2,��
2020/08/10,18:00,0.175,0.159,0.261,0.250,0.245,0.138,0.083,��,4.1,��
2020/08/10,18:10,0.175,0.160,0.262,0.250,0.245,0.137,0.084,��쓌,4.6,��
2020/08/10,18:20,0.177,0.159,0.260,0.249,0.245,0.137,0.084,��,5.1,��
2020/08/10,18:30,0.177,0.158,0.262,0.253,0.245,0.138,0.083,��,3.3,��
2020/08/10,18:40,0.176,0.161,0.261,0.253,0.245,0.137,0.083,��,4.3,��
2020/08/10,18:50,0.175,0.161,0.266,0.253,0.244,0.137,0.084,��,3.9,��
2020/08/10,19:00,0.175,0.160,0.266,0.251,0.248,0.137,0.083,��,3.7,��
2020/08/10,19:10,0.177,0.159,0.264,0.251,0.249,0.137,0.083,��,2.9,��
2020/08/10,19:20,0.177,0.159,0.263,0.255,0.249,0.138,0.082,��,2.9,��
2020/08/10,19:30,0.175,0.160,0.261,0.253,0.246,0.138,0.084,��쐼,1.1,��
2020/08/10,19:40,0.174,0.160,0.265,0.251,0.245,0.137,0.084,��,1.8,��
2020/08/10,19:50,0.176,0.159,0.266,0.249,0.247,0.137,0.083,��,2.4,��
2020/08/10,20:00,0.176,0.160,0.263,0.252,0.249,0.138,0.083,��,2.6,��
2020/08/10,20:10,0.177,0.161,0.261,0.253,0.247,0.138,0.084,��,3.3,��
2020/08/10,20:20,0.174,0.160,0.262,0.251,0.245,0.137,0.084,��,4.9,��
2020/08/10,20:30,0.177,0.158,0.266,0.249,0.247,0.137,0.083,��,2.1,��
2020/08/10,20:40,0.178,0.162,0.264,0.253,0.250,0.138,0.084,��,2.9,��
2020/08/10,20:50,0.177,0.161,0.263,0.253,0.250,0.139,0.084,��,2.7,��
2020/08/10,21:00,0.174,0.161,0.264,0.252,0.247,0.137,0.084,��쐼,2.7,��
2020/08/10,21:10,0.177,0.161,0.266,0.251,0.246,0.138,0.084,��,2.4,��
2020/08/10,21:20,0.177,0.162,0.265,0.253,0.250,0.138,0.085,��,3.6,��
2020/08/10,21:30,0.176,0.163,0.263,0.254,0.251,0.139,0.084,��쐼,3.6,��
2020/08/10,21:40,0.176,0.160,0.264,0.252,0.248,0.138,0.084,��쐼,3.5,��
2020/08/10,21:50,0.177,0.160,0.266,0.250,0.246,0.137,0.084,��쐼,1.8,��
2020/08/10,22:00,0.177,0.162,0.265,0.254,0.247,0.139,0.085,�쐼,0.7,��
2020/08/10,22:10,0.176,0.162,0.263,0.254,0.252,0.140,0.084,���쐼,0.8,��
2020/08/10,22:20,0.176,0.161,0.265,0.251,0.250,0.138,0.084,�쐼,1.4,��
2020/08/10,22:30,0.179,0.163,0.266,0.252,0.247,0.139,0.085,��쐼,0.7,��
2020/08/10,22:40,0.177,0.162,0.266,0.255,0.247,0.139,0.085,��,0.7,��
2020/08/10,22:50,0.176,0.160,0.264,0.254,0.251,0.139,0.084,��,0.6,��
2020/08/10,23:00,0.178,0.162,0.267,0.251,0.250,0.138,0.085,��쐼,0.9,��
2020/08/10,23:10,0.177,0.162,0.266,0.254,0.247,0.139,0.085,��쐼,1.3,��
2020/08/10,23:20,0.177,0.161,0.263,0.254,0.248,0.139,0.086,�쐼,2.1,��
2020/08/10,23:30,0.178,0.162,0.264,0.252,0.251,0.138,0.086,�쐼,3.0,��
2020/08/10,23:40,0.180,0.163,0.266,0.253,0.249,0.139,0.086,��,2.2,��
2020/08/10,23:50,0.177,0.161,0.265,0.254,0.248,0.140,0.085,��,2.0,��
